When you browse on this site, cookies collect data to enhance your experience and personalize the content and advertising you see.
Visit our Privacy Policy to learn more. By continuing to use the site, you agree to this use of cookies and data.
  • En España
  • Lista de países
  • Para 7 días
  • Temperatura del agua
  • Mapa Satelital
  • El tiempo en el mapa
  • Informadores
  • user-avatar
    Iniciar sesión

    Tiempo cada hora Prutz

    Hoy, 23 Abril, Martes

    Tiempo Temperatura Precipitaciones Viento Presión Humedad
    00:00 +3°C° 0 mm 4 mps 624 mmHg 84%
    01:00 +3°C° 0 mm 4 mps 624 mmHg 85%
    02:00 +3°C° 0 mm 4 mps 624 mmHg 85%
    03:00 +3°C° 0 mm 4 mps 623 mmHg 84%
    04:00 +3°C° 0 mm 4 mps 623 mmHg 83%
    05:00 +3°C° 0.1 mm 4 mps 623 mmHg 82%
    06:00 +4°C° 0.1 mm 4 mps 623 mmHg 80%
    07:00 +5°C° 0.1 mm 4 mps 623 mmHg 79%
    08:00 +6°C° 0 mm 4 mps 623 mmHg 74%
    09:00 +7°C° 0 mm 4 mps 624 mmHg 70%
    10:00 +10°C° 0 mm 4 mps 624 mmHg 65%
    11:00 +10°C° 0.1 mm 3 mps 624 mmHg 63%
    12:00 +11°C° 0.1 mm 3 mps 624 mmHg 60%
    13:00 +12°C° 0.1 mm 3 mps 624 mmHg 58%
    14:00 +11°C° 0.1 mm 3 mps 624 mmHg 60%
    15:00 +11°C° 0.1 mm 3 mps 624 mmHg 62%
    16:00 +10°C° 0.1 mm 3 mps 624 mmHg 64%
    17:00 +9°C° 0 mm 3 mps 624 mmHg 70%
    18:00 +8°C° 0 mm 3 mps 623 mmHg 75%
    19:00 +7°C° 0 mm 3 mps 623 mmHg 80%
    20:00 +5°C° 0 mm 3 mps 623 mmHg 81%
    21:00 +5°C° 0 mm 3 mps 624 mmHg 82%
    22:00 +5°C° 0 mm 3 mps 624 mmHg 84%
    23:00 +4°C° 0 mm 3 mps 624 mmHg 84%

    Mañana, 24 Abril, Miércoles

    Tiempo Temperatura Precipitaciones Viento Presión Humedad
    00:00 +4°C° 0 mm 3 mps 624 mmHg 84%
    01:00 +4°C° 0 mm 4 mps 625 mmHg 85%
    02:00 +4°C° 0 mm 4 mps 625 mmHg 84%
    03:00 +4°C° 0 mm 4 mps 625 mmHg 83%
    04:00 +4°C° 0 mm 4 mps 625 mmHg 82%
    05:00 +4°C° 0 mm 4 mps 625 mmHg 80%
    06:00 +5°C° 0 mm 4 mps 626 mmHg 77%
    07:00 +6°C° 0 mm 4 mps 627 mmHg 75%
    08:00 +7°C° 0 mm 4 mps 627 mmHg 69%
    09:00 +10°C° 0 mm 4 mps 628 mmHg 63%
    10:00 +12°C° 0 mm 5 mps 629 mmHg 57%
    11:00 +12°C° 0 mm 5 mps 629 mmHg 56%
    12:00 +12°C° 0 mm 5 mps 629 mmHg 55%
    13:00 +13°C° 0 mm 5 mps 629 mmHg 54%
    14:00 +13°C° 0 mm 5 mps 629 mmHg 54%
    15:00 +13°C° 0 mm 5 mps 629 mmHg 55%
    16:00 +13°C° 0 mm 5 mps 629 mmHg 56%
    17:00 +12°C° 0 mm 5 mps 629 mmHg 62%
    18:00 +9°C° 0 mm 5 mps 629 mmHg 69%
    19:00 +7°C° 0 mm 5 mps 629 mmHg 75%
    20:00 +7°C° 0 mm 5 mps 629 mmHg 77%
    21:00 +6°C° 0 mm 4 mps 630 mmHg 79%
    22:00 +6°C° 0 mm 4 mps 631 mmHg 81%
    23:00 +5°C° 0 mm 4 mps 631 mmHg 83%

    Pasado mañana, 25 Abril, Jueves

    Tiempo Temperatura Precipitaciones Viento Presión Humedad
    00:00 +5°C° 0 mm 4 mps 631 mmHg 84%
    01:00 +5°C° 0 mm 4 mps 631 mmHg 86%
    02:00 +4°C° 0 mm 4 mps 631 mmHg 86%
    03:00 +4°C° 0 mm 4 mps 631 mmHg 85%
    04:00 +4°C° 0 mm 4 mps 631 mmHg 85%
    05:00 +5°C° 0 mm 4 mps 631 mmHg 81%
    06:00 +6°C° 0 mm 4 mps 631 mmHg 77%
    07:00 +6°C° 0 mm 4 mps 632 mmHg 73%
    08:00 +8°C° 0 mm 4 mps 632 mmHg 67%
    09:00 +11°C° 0 mm 4 mps 632 mmHg 62%
    10:00 +12°C° 0 mm 4 mps 633 mmHg 56%
    11:00 +13°C° 0.1 mm 4 mps 633 mmHg 55%
    12:00 +13°C° 0.1 mm 4 mps 633 mmHg 53%
    13:00 +14°C° 0.1 mm 4 mps 633 mmHg 51%
    14:00 +14°C° 0.1 mm 4 mps 633 mmHg 51%
    15:00 +14°C° 0.1 mm 4 mps 632 mmHg 52%
    16:00 +13°C° 0.1 mm 4 mps 632 mmHg 53%
    17:00 +12°C° 0 mm 4 mps 632 mmHg 59%
    18:00 +11°C° 0 mm 4 mps 631 mmHg 66%
    19:00 +9°C° 0 mm 3 mps 631 mmHg 73%
    20:00 +8°C° 0 mm 4 mps 631 mmHg 76%
    21:00 +7°C° 0 mm 4 mps 631 mmHg 79%
    22:00 +7°C° 0 mm 4 mps 631 mmHg 82%
    23:00 +6°C° 0.1 mm 4 mps 631 mmHg 84%

    26 Abril, Viernes

    Tiempo Temperatura Precipitaciones Viento Presión Humedad
    00:00 +6°C° 0.1 mm 4 mps 630 mmHg 85%
    01:00 +5°C° 0.1 mm 4 mps 630 mmHg 87%
    02:00 +5°C° 0 mm 4 mps 630 mmHg 88%
    03:00 +5°C° 0 mm 4 mps 630 mmHg 88%
    04:00 +5°C° 0 mm 4 mps 630 mmHg 89%
    05:00 +7°C° 0.1 mm 3 mps 630 mmHg 84%
    06:00 +7°C° 0.1 mm 3 mps 631 mmHg 80%
    07:00 +8°C° 0.1 mm 3 mps 631 mmHg 75%
    08:00 +9°C° 0.1 mm 3 mps 632 mmHg 71%
    09:00 +10°C° 0.1 mm 3 mps 632 mmHg 68%
    10:00 +11°C° 0.1 mm 3 mps 633 mmHg 64%
    11:00 +10°C° 1.1 mm 3 mps 633 mmHg 71%
    12:00 +9°C° 1.1 mm 3 mps 632 mmHg 78%
    13:00 +7°C° 1.1 mm 2 mps 632 mmHg 85%
    14:00 +5°C° 2.7 mm 3 mps 632 mmHg 88%
    15:00 +3°C° 2.7 mm 3 mps 631 mmHg 92%
    16:00 +2°C° 2.7 mm 3 mps 631 mmHg 95%
    17:00 +2°C° 1.8 mm 2 mps 631 mmHg 95%
    18:00 +1°C° 1.8 mm 2 mps 631 mmHg 95%
    19:00 -1°C° 1.8 mm 2 mps 631 mmHg 95%
    20:00 -1°C° 0.4 mm 2 mps 631 mmHg 94%
    21:00 -1°C° 0.4 mm 2 mps 631 mmHg 93%
    22:00 -1°C° 0.4 mm 2 mps 631 mmHg 92%
    23:00 -1°C° 0.1 mm 2 mps 631 mmHg 92%

    27 Abril, Sábado

    Tiempo Temperatura Precipitaciones Viento Presión Humedad
    00:00 -1°C° 0.1 mm 2 mps 632 mmHg 91%
    01:00 -2°C° 0.1 mm 2 mps 632 mmHg 90%
    02:00 -1°C° 0.2 mm 2 mps 632 mmHg 91%
    03:00 -1°C° 0.2 mm 2 mps 632 mmHg 92%
    04:00 +1°C° 0.2 mm 1 mps 632 mmHg 93%
    05:00 +1°C° 0.2 mm 1 mps 632 mmHg 92%
    06:00 +2°C° 0.2 mm 1 mps 633 mmHg 92%
    07:00 +3°C° 0.2 mm 1 mps 633 mmHg 91%
    08:00 +2°C° 0.5 mm 2 mps 633 mmHg 92%
    09:00 +3°C° 0.5 mm 2 mps 634 mmHg 93%
    10:00 +3°C° 0.5 mm 2 mps 634 mmHg 94%
    11:00 +3°C° 0.4 mm 2 mps 634 mmHg 93%
    12:00 +3°C° 0.4 mm 3 mps 634 mmHg 93%
    13:00 +3°C° 0.4 mm 3 mps 634 mmHg 93%
    14:00 +3°C° 0.2 mm 3 mps 634 mmHg 92%
    15:00 +3°C° 0.2 mm 3 mps 635 mmHg 91%
    16:00 +3°C° 0.2 mm 3 mps 635 mmHg 91%
    17:00 +2°C° 0.1 mm 3 mps 635 mmHg 92%
    18:00 +2°C° 0.1 mm 2 mps 635 mmHg 93%
    19:00 +1°C° 0.1 mm 2 mps 635 mmHg 95%
    20:00 -1°C° 0 mm 2 mps 636 mmHg 95%
    21:00 -2°C° 0 mm 2 mps 636 mmHg 95%
    22:00 0°C° 0 mm 1 mps 637 mmHg 95%
    23:00 -1°C° 0 mm 1 mps 637 mmHg 95%

    28 Abril, Domingo

    Tiempo Temperatura Precipitaciones Viento Presión Humedad
    00:00 -1°C° 0 mm 1 mps 637 mmHg 94%
    01:00 -2°C° 0 mm 1 mps 637 mmHg 93%
    02:00 -2°C° 0 mm 1 mps 637 mmHg 93%
    03:00 -2°C° 0 mm 1 mps 636 mmHg 92%
    04:00 -2°C° 0 mm 1 mps 636 mmHg 91%
    05:00 -1°C° 0 mm 1 mps 637 mmHg 89%
    06:00 0°C° 0 mm 1 mps 637 mmHg 86%
    07:00 +2°C° 0 mm 1 mps 637 mmHg 83%
    08:00 +3°C° 0 mm 1 mps 637 mmHg 80%
    09:00 +5°C° 0 mm 1 mps 637 mmHg 78%
    10:00 +5°C° 0 mm 2 mps 637 mmHg 75%
    11:00 +6°C° 0 mm 2 mps 637 mmHg 75%
    12:00 +6°C° 0 mm 2 mps 637 mmHg 75%
    13:00 +7°C° 0 mm 2 mps 637 mmHg 75%
    14:00 +7°C° 0.1 mm 2 mps 636 mmHg 75%
    15:00 +7°C° 0.1 mm 2 mps 636 mmHg 75%
    16:00 +7°C° 0.1 mm 2 mps 636 mmHg 75%
    17:00 +7°C° 0.3 mm 1 mps 635 mmHg 81%
    18:00 +6°C° 0.3 mm 1 mps 635 mmHg 86%
    19:00 +5°C° 0.3 mm 1 mps 635 mmHg 92%
    20:00 +5°C° 0.5 mm 1 mps 635 mmHg 93%
    21:00 +4°C° 0.5 mm 1 mps 635 mmHg 94%
    22:00 +4°C° 0.5 mm 1 mps 635 mmHg 95%
    23:00 +4°C° 0.3 mm 1 mps 635 mmHg 95%
    Mostrar más